Regional Weather Roundup
Issued by NWS

Home | Current Version | Previous Version | Graphics & Text | Print | Product List | Glossary On
Versions: 1 2 3 4 5 6 7 8 9 10 11 12 13 14 15 16 17 18 19 20 21 22 23 24 25 26 27
000
ASUS45 KBOI 301010
RWRID

IDAHO REGIONAL WEATHER ROUNDUP
NATIONAL WEATHER SERVICE BOISE ID
400 AM MDT SAT APR 30 2016

NOTE: "FAIR" INDICATES FEW OR NO CLOUDS BELOW 12000 FEET
WITH NO SIGNIFICANT WEATHER AND/OR OBSTRUCTIONS TO VISIBILITY

IDZ012-014-301100-
SOUTHWEST IDAHO


CITY           SKY/WX    TMP DP  RH WIND       PRES   REMARKS
BOISE          CLEAR     44  36  73 NW14      29.97S
CALDWELL       CLEAR     44  39  82 W14       30.02R
MOUNTAIN HOME  CLEAR     43  37  79 NW20      29.95R
$$

IDZ016-017-301100-
SOUTHCENTRAL IDAHO


CITY           SKY/WX    TMP DP  RH WIND       PRES   REMARKS
BURLEY         LGT RAIN  42  37  82 W12       29.93R
JEROME         CLOUDY    40  37  89 S6        29.95R
TWIN FALLS     LGT RAIN  41  36  82 SW12      29.96R
$$

IDZ019>023-301100-
SOUTHEAST IDAHO


CITY           SKY/WX    TMP DP  RH WIND       PRES   REMARKS
IDAHO FALLS    PTCLDY    32  30  92 NW3       29.93S
POCATELLO      CLEAR     35  33  92 CALM      29.93R
REXBURG        CLEAR     37  34  89 CALM      29.93R
$$

IDZ006-010-011-018-031-032-301100-
CENTRAL IDAHO MOUNTAINS


CITY           SKY/WX    TMP DP  RH WIND       PRES   REMARKS
MCCALL         CLEAR     37  30  75 N5        30.02R WCI  33
HAILEY         CLEAR     34  32  93 NW7       29.97R WCI  28
STANLEY          N/A     30  26  85 CALM      30.01R
SALMON         CLOUDY    37  32  81 CALM      30.02R
CHALLIS        PTCLDY    38  27  64 N6        30.00R WCI  33
$$

IDZ002-004-006-007-026-301100-
NORTHERN IDAHO


CITY           SKY/WX    TMP DP  RH WIND       PRES   REMARKS
LEWISTON       LGT RAIN  49  47  93 E3        30.09F
LOWELL           N/A     46  44  93 CALM      30.13R
COEUR D`ALENE  CLOUDY    46  43  87 N5        30.08R
MULLAN PASS    CLOUDY    31  30  96 CALM      30.06R
$$




USA.gov is the U.S. government's official web portal to all federal, state and local government web resources and services.